Wind_Speed
17 17 17 16 17 17 17 18 18 20 21 15 9 5 4 3 2 5 19 13 3 8 7 2 4 4 0 0 1 1 2 2 2 3 3 3 1 2 2 1 1 2 1 0 1 1 1 0 1 1 1 1 0 0 1 2 2 0 1 2 1 1 3 2 4 4 3 4 3 1 2 5 5 3 3 2 2 1 2 3 1 1 2 2 2 2 3
15 15 16 16 17 17 17 18 18 20 20 17 10 4 3 2 2 4 18 14 4 5 4 2 3 2 1 3 3 3 2 3 3 3 3 3 1 2 1 0 1 0 1 1 1 1 1 1 2 2 1 1 0 2 2 2 1 1 0 1 2 2 1 2 3 5 6 6 5 4 3 3 3 2 3 2 2 3 1 1 2 1 1 2 1 3 2
15 15 16 17 17 18 18 18 18 18 17 15 10 4 3 3 1 3 14 20 11 4 3 5 4 1 2 5 4 4 2 1 0 1 1 1 1 1 1 1 0 0 1 2 2 3 3 2 3 3 2 2 1 1 3 2 1 0 3 2 1 1 1 2 3 2 3 4 4 4 4 3 2 2 4 4 3 4 2 1 2 1 1 2 1 3 1
15 16 17 18 18 19 19 19 18 16 16 13 8 5 3 3 3 3 7 12 10 3 1 4 5 3 3 4 3 4 2 1 2 2 1 1 0 2 2 1 1 2 4 4 3 5 4 2 3 3 3 4 2 2 3 1 1 2 2 0 2 3 2 2 4 4 3 4 4 3 3 2 2 4 6 6 4 3 2 2 2 0 1 3 1 2 2
17 17 18 19 19 20 20 20 18 15 15 12 7 6 5 3 2 2 2 4 5 4 4 5 4 2 3 3 2 3 3 2 1 1 1 0 1 2 3 4 4 3 4 4 3 4 4 4 4 1 4 4 3 4 2 1 4 3 1 1 3 4 3 3 3 3 3 3 3 3 3 2 1 3 5 7 7 5 6 4 1 1 2 3 2 0 3
18 18 19 19 20 21 20 20 18 15 14 12 5 3 4 3 2 0 0 1 2 3 4 4 5 5 4 3 1 3 3 3 1 2 2 2 1 2 3 6 6 3 2 2 2 4 4 4 2 1 3 4 5 5 2 1 5 5 2 2 3 5 2 2 1 2 3 1 2 2 2 3 2 3 4 6 7 7 6 3 0 3 1 4 4 3 3
18 18 19 20 20 20 20 19 18 14 12 11 9 5 2 3 3 1 2 3 2 0 2 2 5 7 5 3 2 3 3 4 1 2 3 4 4 3 4 6 7 4 2 2 2 3 3 2 2 1 1 3 3 4 4 3 4 5 4 4 1 4 1 1 1 2 2 3 4 2 4 3 2 4 4 5 5 5 4 1 0 2 3 6 4 6 4
19 19 20 20 20 19 19 19 18 14 10 9 9 6 2 3 3 1 3 4 2 1 2 2 4 5 4 3 2 1 2 3 2 2 3 4 5 5 4 2 4 4 4 4 3 1 1 2 2 2 1 2 1 1 1 2 5 6 4 3 3 3 3 1 2 2 4 3 4 4 4 4 3 3 5 6 5 4 4 2 2 3 5 5 5 6 5
20 20 20 20 20 19 19 18 17 15 11 8 7 5 3 4 3 4 6 4 4 3 3 2 4 4 3 2 1 2 3 2 1 2 3 2 1 2 1 2 1 3 6 7 3 3 3 3 2 3 3 2 1 1 0 1 4 6 4 3 4 4 3 2 4 4 5 3 3 2 1 4 4 3 6 7 5 3 2 2 1 2 5 6 6 5 3
20 20 20 20 20 20 19 18 17 16 13 9 6 3 3 4 3 3 6 3 3 3 3 3 4 2 2 2 1 2 3 2 1 2 2 1 2 1 2 3 2 4 6 5 2 3 2 3 1 2 4 4 4 2 2 2 1 2 2 2 3 2 2 2 4 3 4 4 3 2 1 3 3 3 4 4 3 2 2 4 4 3 3 4 4 3 2
20 20 20 20 20 20 20 19 18 18 16 11 7 5 3 3 2 2 6 5 3 3 3 4 4 2 2 3 2 2 4 4 3 3 2 2 2 1 2 3 4 3 3 1 0 0 1 2 3 4 5 5 5 4 3 5 5 2 1 2 1 2 4 2 2 1 4 7 5 3 4 4 3 2 1 4 3 2 4 7 7 3 0 1 1 2 4
19 20 20 20 20 20 20 20 18 19 19 14 9 8 4 3 4 3 5 5 2 4 4 3 2 2 3 3 1 1 3 3 2 1 3 0 3 3 3 3 5 2 1 1 2 3 3 4 5 4 3 4 3 3 7 9 7 4 2 3 2 3 4 2 1 1 3 5 6 6 3 2 4 2 2 3 4 2 4 7 4 0 2 2 3 4 6
19 19 19 19 19 19 19 20 19 19 19 14 11 12 8 5 6 5 5 6 1 3 3 2 2 3 3 3 1 1 2 1 2 0 3 2 2 4 4 3 3 0 2 3 5 4 3 2 2 0 2 4 4 4 7 8 7 7 6 4 3 3 3 2 1 1 2 3 5 3 3 2 2 1 4 3 1 2 6 5 2 2 1 2 3 5 6
18 19 19 19 19 18 18 18 19 19 18 14 12 14 10 6 6 4 4 6 3 1 2 2 3 4 4 4 3 2 3 3 3 2 2 2 2 3 2 1 0 2 1 3 4 4 2 1 3 3 3 5 5 4 2 4 4 6 8 6 4 4 3 2 2 2 1 1 2 3 2 2 2 2 3 1 1 2 3 2 2 3 2 1 3 5 6
18 18 19 19 19 18 17 17 18 19 18 14 12 15 14 10 8 6 5 7 5 1 1 1 1 3 4 3 3 3 3 4 3 2 2 2 1 1 2 1 1 1 1 3 3 2 2 1 3 4 4 3 2 3 3 2 2 3 5 5 5 5 4 3 2 2 2 1 2 4 4 3 3 3 3 3 4 4 2 1 3 3 2 2 4 4 6
17 17 17 18 18 18 17 16 16 17 17 13 10 14 16 14 11 11 10 7 5 3 2 0 1 1 2 2 2 3 3 1 1 2 4 4 2 1 2 1 1 1 3 4 3 3 4 2 3 2 1 1 1 3 3 3 3 3 3 6 8 7 4 4 5 3 3 3 1 2 2 4 4 4 4 4 3 3 2 0 3 2 2 3 3 4 6
16 16 17 18 18 18 17 17 16 16 17 15 13 15 17 14 11 13 12 7 5 4 1 1 1 2 1 0 2 2 2 0 1 2 1 2 2 3 3 2 2 1 4 4 3 4 5 3 2 2 1 2 1 2 3 2 3 6 5 7 8 6 5 4 5 3 1 2 0 3 3 3 3 4 5 5 0 5 4 5 5 3 3 3 3 4 5
15 15 16 17 18 18 18 18 16 14 14 15 17 19 19 15 10 12 11 6 5 4 1 2 1 1 1 1 1 1 1 1 1 1 1 2 1 2 3 2 2 2 2 3 2 3 4 2 2 2 1 3 1 1 2 1 1 4 4 4 4 3 3 3 4 3 1 1 1 3 3 2 2 4 6 4 2 5 3 5 4 2 2 2 1 2 4
14 15 16 17 18 18 19 19 18 15 12 11 13 17 19 16 13 17 16 8 3 3 0 2 0 0 2 1 1 1 1 1 1 2 2 2 0 0 2 1 0 1 1 3 3 2 3 1 1 3 1 3 2 2 0 0 1 2 1 2 2 2 2 2 2 2 1 1 1 4 4 2 2 4 6 2 2 2 4 3 2 3 5 3 1 2 4
14 14 15 16 17 18 19 20 18 16 14 12 14 18 19 14 9 11 15 12 5 3 2 1 0 1 1 1 1 1 0 1 1 3 3 0 1 3 4 3 2 1 2 3 2 1 2 1 2 1 2 2 1 1 0 2 2 1 1 1 2 1 1 3 2 1 1 2 1 3 4 3 3 2 3 1 1 2 3 2 2 4 4 2 1 3 3
13 13 14 16 17 17 19 21 19 17 16 14 18 24 25 22 17 15 22 25 15 4 1 1 2 4 3 2 2 1 1 1 0 2 3 2 1 4 3 2 1 0 1 2 2 1 2 2 2 0 1 1 0 0 1 1 3 2 2 3 2 2 1 1 3 2 2 1 1 2 2 4 4 2 2 2 2 1 1 2 4 4 2 1 2 3 2
12 13 13 15 16 16 18 19 18 18 18 16 19 26 27 27 27 26 30 34 24 10 7 8 6 8 8 6 5 3 1 1 0 1 2 1 1 2 3 2 2 1 2 2 2 1 1 2 2 2 2 1 1 0 2 1 3 4 1 1 2 3 4 3 3 3 3 4 6 4 1 2 3 3 3 3 2 1 1 1 4 4 1 0 1 3 3
11 12 13 14 15 17 18 18 17 17 17 16 18 26 29 27 26 28 32 33 24 13 10 9 6 6 7 6 6 5 3 3 2 1 0 1 1 1 1 1 1 1 1 2 1 3 3 2 2 2 2 1 2 2 1 1 2 3 1 1 2 2 2 3 1 3 4 5 6 4 1 2 2 3 3 3 2 2 1 2 3 3 1 1 2 3 3
11 12 13 14 16 17 18 19 19 18 17 14 15 21 25 22 19 20 22 19 11 6 5 4 3 3 3 4 5 5 4 4 4 4 4 2 1 1 1 0 1 1 0 1 2 3 3 2 2 3 1 1 2 3 1 2 3 2 1 2 3 1 2 2 1 1 3 3 3 2 2 4 4 2 3 2 2 2 2 2 3 2 1 1 2 3 5
12 13 14 16 17 18 18 18 18 17 16 14 14 15 17 15 11 10 10 9 6 5 4 3 4 3 3 4 4 4 4 5 5 5 6 4 2 2 1 1 2 2 2 2 2 3 4 2 2 3 2 2 1 1 2 2 2 2 2 2 3 1 3 2 2 2 2 5 5 4 4 5 2 2 3 2 2 3 3 2 2 1 1 2 4 4 5
13 14 16 18 19 19 20 19 18 18 16 15 15 16 18 19 15 13 15 15 10 6 4 1 2 3 2 3 4 4 5 6 6 6 5 5 3 2 4 4 3 3 3 3 3 3 3 3 3 3 2 2 1 2 3 2 1 1 2 4 2 3 3 2 2 2 4 6 5 5 5 3 1 3 3 3 3 3 3 3 3 2 2 4 5 5 5
14 14 16 17 19 20 21 20 20 20 19 17 17 15 15 13 10 7 8 8 4 3 3 2 2 3 2 3 5 5 5 5 6 5 4 3 3 2 4 5 3 2 4 4 2 2 3 3 2 2 2 1 2 2 2 1 2 2 3 4 2 2 2 2 0 2 4 5 2 0 2 5 4 3 4 4 4 4 3 3 3 3 2 3 4 5 6
13 14 14 16 17 19 19 19 20 21 21 20 20 21 20 18 14 9 4 3 5 5 4 3 2 1 2 2 5 7 5 5 5 5 4 4 5 4 4 4 3 2 3 2 1 2 3 2 1 2 2 1 1 1 1 1 2 1 4 4 4 4 5 4 3 3 5 5 4 4 2 5 5 1 3 4 5 5 3 3 4 3 3 4 4 5 5
12 12 11 10 9 8 6 6 8 9 11 12 13 16 19 20 19 16 12 12 15 14 7 2 2 2 0 1 4 5 4 3 4 5 5 5 6 5 5 5 4 3 3 3 3 3 2 2 2 2 1 1 2 1 1 1 0 3 5 6 6 5 5 7 7 6 5 4 2 4 4 4 3 1 3 5 7 5 3 4 5 4 4 4 5 5 4
12 11 9 7 6 5 3 0 3 4 3 2 2 6 9 10 12 12 11 9 11 11 6 3 2 1 2 1 2 5 5 2 1 2 4 5 5 4 4 4 4 3 3 2 3 3 1 0 0 1 2 1 3 2 1 2 2 5 5 5 6 5 4 5 6 5 4 2 3 4 4 4 2 1 4 6 7 6 3 4 5 5 5 5 5 6 5
15 14 13 14 15 15 14 11 7 4 2 2 1 2 3 3 5 7 7 5 6 7 6 4 2 1 2 1 1 5 7 3 1 0 1 3 4 4 3 2 2 2 2 2 2 2 2 1 1 1 2 2 3 2 3 3 2 6 6 5 7 6 6 6 6 4 3 1 3 2 3 3 1 1 3 6 9 7 4 4 5 5 5 6 6 6 6
18 18 18 18 19 20 20 19 17 15 13 12 9 6 4 3 3 5 5 5 5 6 6 4 2 1 2 2 2 5 7 4 2 2 1 1 2 3 3 3 3 2 4 3 2 1 1 2 1 1 0 2 4 3 3 3 3 6 6 5 5 5 6 5 4 3 2 3 3 1 5 3 3 3 3 6 10 8 6 5 5 5 5 6 7 7 7
16 15 15 16 16 17 18 18 18 19 21 22 19 15 10 6 3 3 3 4 5 6 5 4 3 1 1 2 2 6 6 3 2 3 2 1 3 2 1 3 3 2 3 2 1 1 1 2 2 1 0 1 3 3 2 4 7 7 5 4 4 5 4 4 2 2 2 4 4 3 5 3 3 4 3 5 8 8 6 5 5 5 6 7 7 7 7
12 12 11 11 11 11 12 12 13 15 17 19 18 18 18 14 9 5 2 3 5 7 6 4 3 1 2 1 1 4 5 2 1 2 1 2 4 2 0 2 3 2 2 1 1 1 1 1 2 1 1 1 2 1 3 6 8 6 4 4 3 2 1 2 3 3 4 5 7 7 4 2 1 2 3 5 7 8 6 5 5 6 5 6 7 8 8
9 9 7 7 6 6 6 6 7 8 10 11 10 11 14 15 15 13 8 3 3 3 3 3 3 2 3 4 2 4 5 3 0 1 1 2 4 3 1 1 3 1 1 1 1 1 1 0 2 2 2 0 0 3 5 7 7 6 4 4 3 3 2 3 4 4 4 4 6 6 3 2 2 2 3 4 7 8 7 6 7 6 5 5 7 8 8
7 6 4 3 2 2 2 4 4 4 5 5 5 5 7 7 9 12 12 11 10 5 2 1 3 2 1 1 3 4 5 3 1 2 1 1 3 3 3 2 1 0 1 2 1 0 1 1 1 1 2 1 3 5 6 6 6 5 5 6 6 6 5 4 3 3 3 3 4 3 3 4 4 4 4 4 6 8 7 6 6 6 5 5 6 8 9
7 4 2 1 2 2 2 3 4 3 3 3 2 3 4 2 2 4 7 10 12 9 5 4 2 2 1 1 2 4 5 3 2 3 3 1 1 2 2 2 0 2 2 3 1 1 0 1 1 1 3 4 5 6 5 5 5 5 5 5 5 6 5 3 4 4 1 2 3 4 4 4 4 4 4 4 5 6 6 5 6 7 6 6 7 9 10
6 5 3 2 2 2 1 1 1 3 2 1 1 2 3 3 3 3 4 4 6 7 6 5 1 1 1 0 2 3 3 1 1 3 2 1 1 2 1 1 1 1 2 2 2 1 1 3 2 1 5 6 5 6 6 6 5 4 4 4 5 5 5 5 6 5 2 4 5 4 3 4 5 5 4 5 5 6 7 8 8 8 8 9 10 10 11
5 4 2 1 1 1 1 1 1 1 0 2 1 0 2 4 4 2 3 3 3 3 3 3 1 2 2 1 3 3 3 2 2 3 2 1 1 2 1 0 0 1 1 2 2 1 1 2 2 1 5 6 5 4 5 4 4 4 5 6 6 7 8 8 8 8 6 6 6 4 4 5 6 5 4 4 5 6 7 9 10 9 10 11 11 11 11
3 2 1 0 0 1 2 2 0 1 1 2 3 1 1 3 3 1 1 3 2 1 1 2 1 2 1 1 2 2 2 3 1 1 1 1 1 0 1 0 0 1 1 3 2 1 1 1 2 2 3 5 5 3 2 3 4 5 6 7 8 7 8 9 10 10 9 8 7 7 7 7 7 6 5 5 5 5 7 9 10 10 11 11 11 12 12
2 0 0 1 2 3 3 1 1 1 1 2 3 2 2 2 2 1 2 3 2 3 1 2 2 2 1 2 2 2 1 2 1 2 1 1 1 1 1 1 1 1 1 4 2 2 3 0 2 2 4 5 4 3 2 3 3 4 6 8 8 8 8 8 9 10 10 9 8 9 9 9 9 9 8 8 8 8 9 10 10 10 11 11 11 12 12
2 1 2 4 4 3 2 2 3 3 2 1 2 2 1 1 2 2 1 0 1 2 1 1 1 2 2 2 3 2 1 2 2 2 1 1 1 1 1 1 1 1 2 4 0 4 2 1 3 5 6 6 4 3 3 4 4 4 6 10 10 9 9 9 9 10 11 11 10 10 10 10 11 11 10 9 9 10 11 11 11 11 11 11 11 12 11
4 4 4 3 2 2 2 2 2 2 2 2 2 2 2 2 2 1 2 2 1 0 1 2 1 1 1 1 1 2 1 1 1 1 1 1 1 2 2 2 1 1 2 0 3 3 1 3 4 5 5 4 4 4 4 5 4 4 6 9 10 10 10 10 10 10 10 11 11 11 11 11 12 11 10 10 10 11 11 12 12 12 12 11 11 12 11
4 2 2 1 1 2 2 1 1 2 2 1 1 1 1 4 2 1 2 2 1 2 2 1 1 1 2 1 1 0 0 0 1 1 0 1 1 2 1 1 3 2 1 2 1 1 3 4 5 6 4 3 4 5 5 5 4 4 5 7 9 9 9 10 10 10 10 11 11 11 11 12 12 12 12 12 12 12 12 12 12 12 12 12 13 13 11
1 1 3 3 2 2 1 1 2 2 1 0 2 4 3 3 3 4 4 2 1 2 0 1 3 2 2 2 0 1 0 1 1 0 0 1 1 0 1 2 2 1 2 1 1 2 3 5 5 5 4 5 6 6 5 5 6 6 5 4 7 10 11 11 11 12 12 12 12 12 12 13 13 14 14 14 13 13 13 13 12 12 12 13 14 14 11
2 1 3 2 1 2 1 1 1 1 1 2 3 5 5 5 5 5 3 1 3 3 2 2 4 3 1 2 1 0 0 1 1 1 1 2 0 2 2 1 1 2 1 1 3 3 5 6 4 4 5 6 6 4 4 5 7 8 6 4 6 10 12 12 13 13 13 13 13 13 13 14 14 15 15 15 13 13 14 14 13 12 13 14 15 14 12
2 1 3 2 1 2 0 1 2 2 2 3 4 4 4 3 3 2 1 1 3 4 2 2 2 1 1 1 0 0 1 2 1 1 0 2 1 2 1 2 1 1 1 3 5 6 6 5 4 4 6 6 4 4 4 4 6 8 7 6 7 9 11 12 12 13 14 13 13 13 14 15 15 15 15 15 14 14 14 14 13 14 14 15 15 14 13
1 1 1 1 1 1 2 2 2 3 1 2 2 2 1 1 1 3 2 3 3 4 4 3 2 0 1 1 1 0 1 1 0 1 0 1 0 1 2 2 2 3 3 4 6 6 4 4 5 5 5 4 4 4 4 5 6 8 8 8 9 10 11 12 13 13 13 13 13 14 15 15 14 14 14 15 15 15 14 13 14 15 15 16 16 15 14
3 2 1 1 1 2 3 1 2 4 3 2 1 1 1 2 3 4 4 3 2 3 3 3 2 2 1 1 1 1 1 1 0 0 1 1 0 1 1 1 3 4 4 5 6 5 4 5 4 4 4 4 5 5 5 6 8 9 11 12 13 12 12 12 13 13 13 13 14 15 15 14 13 14 14 15 16 16 14 13 13 15 15 16 16 16 16
3 2 1 1 0 2 2 1 1 4 5 4 3 2 3 2 4 5 6 5 2 2 2 1 1 1 1 1 2 1 2 2 1 1 0 2 2 2 1 2 4 5 5 5 5 5 5 5 3 4 5 6 5 5 6 7 10 12 14 15 14 13 12 12 12 12 12 13 14 14 13 14 14 14 14 15 15 15 14 14 14 15 16 16 16 17 18
2 1 0 1 2 3 3 2 1 4 5 3 3 4 4 3 3 5 9 8 4 3 2 1 0 2 2 1 0 1 2 1 1 1 2 3 3 3 3 5 7 6 5 5 4 5 5 4 4 4 5 5 5 7 10 11 13 14 15 14 13 12 12 12 12 13 13 13 13 13 14 14 14 14 14 15 14 14 15 17 17 17 16 16 16 17 18
1 1 1 1 0 3 4 3 2 4 4 3 3 4 3 2 3 7 10 9 5 2 2 2 2 3 1 2 1 1 0 1 0 1 3 3 3 4 6 7 7 5 5 5 5 5 5 5 5 6 7 6 7 10 13 14 14 15 14 14 13 13 13 13 13 13 13 13 13 14 14 14 13 13 14 14 13 14 16 19 19 17 15 15 15 15 16
Wind_Direction
351 352 355 355 359 1 2 3 1 4 10 11 15 34 70 65 133 340 355 354 131 79 46 343 26 51 203 20 65 4 36 58 359 1 20 19 21 32 36 58 45 68 144 213 116 67 21 135 63 15 330 359 36 135 337 294 267 52 7 314 317 48 64 22 304 301 319 316 325 359 89 81 70 35 30 43 344 4 166 190 205 278 323 10 60 310 263
358 1 4 5 8 8 7 8 6 6 11 13 17 57 116 88 191 338 9 21 114 90 68 117 44 20 300 42 28 356 40 63 15 9 13 5 72 65 24 273 30 87 175 108 93 335 25 62 45 48 41 359 129 182 243 300 5 53 26 302 342 359 46 45 7 350 346 345 351 340 342 39 50 3 11 27 1 360 311 191 45 358 305 70 125 264 271
10 13 14 15 14 13 12 11 8 9 13 16 28 90 137 70 128 291 14 37 66 99 141 141 122 96 64 56 23 2 42 72 11 120 32 341 161 115 342 260 104 135 73 49 12 6 32 33 23 39 8 310 306 232 268 300 28 294 242 264 352 88 132 91 85 43 330 312 313 317 319 350 23 1 0 10 23 14 321 288 37 34 333 33 154 230 285
22 21 21 20 18 17 16 12 10 11 13 19 45 79 110 82 60 314 349 27 53 78 118 101 108 120 94 62 18 24 50 293 237 161 124 298 135 57 1 336 12 32 42 37 3 9 28 51 61 40 328 294 276 294 286 252 296 274 232 257 72 100 67 63 126 160 221 241 259 310 341 347 339 343 352 358 357 360 51 78 51 235 308 334 222 200 330
29 27 25 22 20 19 17 14 12 11 14 22 51 60 52 92 83 18 329 355 29 40 25 37 69 113 112 90 13 3 2 321 291 142 126 213 88 64 39 31 32 20 27 33 2 355 16 42 57 17 294 285 281 299 291 272 323 320 165 114 74 87 33 21 112 183 238 241 276 324 19 71 46 358 355 354 352 13 65 80 13 59 42 310 263 57 336
32 29 27 24 22 19 17 17 14 13 15 20 44 56 28 67 132 175 67 57 29 19 14 37 55 51 71 104 67 5 12 24 12 322 346 14 26 59 43 25 23 355 328 47 15 354 15 33 13 308 305 322 330 333 327 328 349 8 34 356 79 102 48 350 119 259 279 315 321 340 76 90 64 34 11 2 7 32 69 101 78 66 70 268 294 350 313
33 31 29 26 24 20 19 19 16 17 19 24 51 75 35 77 111 342 17 86 124 22 341 47 61 46 49 77 59 41 44 42 7 303 357 7 359 44 57 360 352 347 328 111 88 5 25 34 313 287 337 339 356 5 341 324 2 31 29 354 82 115 15 321 130 309 321 355 348 32 98 105 63 40 22 8 12 38 66 112 273 10 278 266 315 331 295
35 33 31 29 28 24 22 22 20 23 28 34 54 67 65 118 137 142 56 68 82 33 13 50 64 41 44 63 45 56 58 32 3 5 33 16 349 29 68 331 330 8 24 70 100 267 184 153 264 217 106 11 19 42 334 301 341 15 31 342 341 35 357 342 80 351 318 337 3 36 89 113 101 52 17 10 11 27 37 20 357 343 301 295 332 316 283
36 34 33 32 31 30 27 27 26 28 36 54 66 62 75 101 130 137 104 58 359 7 10 55 75 38 19 40 18 29 34 22 72 43 33 68 26 10 57 226 249 36 37 55 50 287 206 174 228 192 139 79 55 54 86 241 319 353 23 348 352 27 11 7 52 16 302 312 10 357 56 95 81 21 357 359 360 4 1 332 315 307 297 305 323 310 279
36 34 35 34 34 35 33 32 36 38 43 61 81 83 104 102 82 92 101 77 1 2 354 31 70 57 359 19 348 9 16 356 92 83 22 58 100 187 211 185 130 49 34 40 5 301 219 194 237 164 135 102 90 81 60 91 35 355 40 23 4 51 61 31 41 17 287 295 329 302 12 48 2 322 331 318 309 6 343 299 292 286 271 281 295 290 304
37 35 36 36 37 38 37 38 41 45 48 56 85 120 142 127 108 69 81 78 1 349 28 39 45 55 23 17 358 13 30 19 35 93 98 351 6 82 168 136 108 79 36 24 15 54 132 124 96 102 99 81 84 97 79 68 62 45 81 89 49 65 85 93 47 21 282 296 326 24 55 24 278 225 311 276 237 93 352 306 300 307 239 205 274 310 332
38 37 37 37 38 38 39 40 40 46 48 47 71 103 110 110 107 80 87 100 343 344 52 55 29 47 4 353 355 359 22 20 340 109 121 52 346 19 41 69 90 101 182 149 91 85 95 92 92 96 74 56 62 66 59 52 39 20 67 108 93 52 70 104 85 63 275 312 7 27 13 276 217 169 12 298 205 149 321 298 273 25 49 37 357 332 328
38 39 38 37 37 36 38 40 39 44 45 38 56 84 92 97 96 84 95 107 48 344 60 63 37 62 18 357 36 327 342 359 281 346 95 78 15 22 18 50 87 126 183 121 77 70 87 69 63 220 303 353 1 22 47 46 27 19 33 57 79 79 91 109 86 25 325 4 25 352 287 239 200 359 354 348 51 353 331 316 225 173 82 44 336 307 312
39 39 38 36 36 36 36 38 38 41 42 36 48 71 78 82 94 109 117 101 91 262 125 71 16 17 360 351 5 344 354 15 3 26 69 56 57 48 350 267 256 293 190 118 61 50 98 54 27 347 321 2 9 348 14 44 36 36 32 23 42 93 105 82 48 36 45 26 279 291 325 1 343 329 337 347 287 301 329 315 242 199 163 3 311 298 303
40 40 39 36 36 36 38 40 40 40 40 36 47 67 73 73 83 105 119 111 114 137 79 72 350 333 325 325 4 30 21 9 11 18 345 336 74 74 293 274 337 337 108 101 62 50 80 79 51 19 347 7 6 305 314 5 13 55 60 39 37 57 77 90 77 40 68 67 318 337 360 327 261 232 242 250 246 237 201 233 257 207 191 307 313 301 307
41 41 39 38 38 39 40 42 43 43 41 40 55 70 70 70 81 94 98 103 109 90 29 15 207 278 289 292 352 56 65 8 34 26 344 344 10 313 293 318 359 56 81 69 66 73 60 78 129 100 331 240 223 288 318 360 331 320 48 50 41 37 45 83 82 41 49 74 11 300 259 259 237 216 249 281 266 212 149 326 287 230 235 296 314 305 310
42 42 41 41 41 42 44 44 46 48 48 51 66 75 71 69 82 93 90 82 88 91 25 300 227 267 286 322 339 45 102 220 73 88 2 333 329 313 320 352 353 68 95 66 38 62 65 66 96 76 300 236 172 307 311 15 342 314 337 19 29 22 7 33 58 51 84 116 250 256 233 242 222 214 264 296 223 118 71 343 302 231 227 295 326 315 311
43 44 43 43 43 44 46 46 47 53 58 62 69 73 70 65 74 92 93 86 94 104 2 322 219 254 306 105 312 347 96 17 21 82 335 333 348 315 315 342 4 16 96 92 57 64 76 64 66 96 236 268 55 46 306 5 334 296 314 354 10 8 355 22 73 78 76 133 257 282 268 240 213 236 267 289 91 90 26 315 281 245 289 317 2 319 307
44 47 46 45 45 45 48 49 48 52 61 69 73 70 67 70 85 93 91 78 62 97 96 305 111 245 304 265 233 262 126 107 93 111 62 3 357 25 330 327 17 352 44 84 87 91 91 63 252 129 139 296 334 95 80 357 221 254 343 6 358 5 347 346 58 66 35 126 195 291 288 237 199 266 275 280 76 7 306 278 275 327 327 338 36 315 306
46 51 49 46 47 49 53 53 52 55 64 77 87 79 69 67 79 93 103 110 104 87 74 354 52 108 338 331 138 173 142 65 75 124 120 197 279 60 35 339 309 351 24 59 73 95 110 149 248 149 143 252 268 113 57 317 287 235 145 181 223 191 328 319 301 209 26 21 7 320 296 240 207 274 307 348 135 276 287 303 331 326 319 329 327 300 307
48 54 52 49 49 54 58 58 57 63 71 81 90 85 75 72 80 96 111 113 110 104 112 94 98 101 83 65 97 126 113 75 69 153 148 238 281 88 103 226 246 63 88 103 103 135 148 158 200 218 172 195 50 95 177 330 320 299 159 161 211 206 176 276 265 204 109 33 271 227 231 223 202 209 295 262 215 210 18 323 310 310 309 279 278 286 299
53 59 56 54 57 61 65 66 64 69 76 80 87 90 87 87 92 98 97 92 86 90 123 124 107 87 75 66 68 72 87 95 274 232 179 224 341 86 125 153 121 154 186 122 101 152 160 139 153 165 167 149 68 147 148 92 321 297 261 142 220 220 188 191 237 229 188 208 235 239 223 185 185 201 232 231 203 109 94 268 284 294 294 192 282 295 303
60 64 58 61 69 71 72 75 72 72 78 78 81 93 101 100 97 95 93 90 88 95 109 114 105 76 54 44 48 55 66 71 30 317 142 89 29 35 74 108 125 181 164 89 124 175 158 144 143 136 149 159 124 115 123 236 255 251 227 214 239 221 154 135 187 264 261 251 257 268 276 244 231 223 217 205 173 143 152 246 268 278 285 315 311 303 303
70 71 68 71 79 80 76 77 76 76 80 79 79 93 105 106 98 94 93 92 96 99 83 70 60 40 1 1 29 39 40 49 42 30 37 57 87 76 335 239 144 116 34 161 163 129 112 138 140 106 106 172 138 119 151 250 246 207 161 302 295 252 144 139 175 279 306 284 252 218 244 267 266 220 190 190 184 181 187 229 245 246 251 297 307 306 298
79 79 82 83 84 84 80 78 78 77 78 78 79 87 96 98 99 101 97 95 104 109 89 36 358 351 335 348 17 31 22 21 21 21 21 23 67 114 143 158 117 117 148 172 129 83 76 103 130 116 127 167 176 178 194 229 248 190 177 263 286 171 159 197 206 194 230 256 259 270 282 278 254 169 179 189 189 195 188 186 210 214 246 280 288 297 294
90 90 92 92 90 88 84 81 80 78 78 80 80 83 88 90 92 96 98 99 97 91 93 75 324 344 26 24 20 23 21 14 5 1 3 6 25 107 145 139 108 103 101 83 78 96 106 104 106 125 148 155 154 177 195 207 163 127 222 242 211 127 148 194 203 226 264 275 288 310 312 300 186 170 193 189 189 202 187 165 182 202 246 281 284 289 293
97 98 98 96 93 92 89 86 84 81 80 81 78 77 81 85 91 99 103 104 92 58 88 145 267 310 50 59 32 27 25 16 8 6 8 23 41 88 143 143 122 78 69 60 59 88 91 76 84 143 175 178 120 132 185 208 121 129 253 254 176 146 187 187 135 296 279 269 254 262 312 296 274 218 192 180 178 185 180 177 195 214 238 268 281 291 294
103 102 101 98 96 95 94 93 91 87 84 81 77 74 71 67 65 65 61 92 119 115 125 164 188 150 105 53 20 20 23 22 28 37 45 56 61 74 115 137 134 84 66 81 109 78 72 82 135 159 177 190 126 127 286 2 62 259 254 229 181 187 192 171 174 234 255 254 223 166 189 275 279 210 160 173 171 169 188 208 211 222 244 261 275 289 294
106 105 103 100 96 94 97 103 107 102 93 83 77 75 71 65 63 67 72 89 103 106 105 103 97 95 69 352 4 10 15 24 43 62 71 70 71 80 95 107 117 114 98 101 111 99 98 145 172 174 181 164 159 205 297 56 63 259 241 207 191 200 193 180 190 218 255 270 226 163 189 260 279 135 152 178 175 172 194 212 208 223 251 261 266 272 278
104 102 97 82 61 46 35 98 204 214 211 173 101 71 64 56 53 62 72 85 96 102 106 102 92 3 295 290 7 6 10 30 82 76 73 74 75 80 90 96 104 105 88 75 92 112 132 186 315 278 279 150 133 158 162 138 213 263 252 214 206 219 219 210 206 212 236 238 157 157 211 261 276 138 151 169 176 182 195 208 216 235 258 267 270 272 274
101 97 90 79 69 63 60 65 80 103 168 198 187 66 62 44 29 45 63 73 81 96 102 99 91 328 327 308 312 356 5 16 88 96 96 90 72 63 72 89 88 74 69 66 80 112 143 141 75 319 306 44 96 136 149 138 231 278 265 221 210 214 218 226 226 222 229 169 110 149 243 239 181 159 171 176 184 191 197 209 225 241 259 272 277 277 276
99 97 92 86 79 74 70 70 74 78 80 80 80 83 102 115 65 54 70 79 84 99 98 83 70 354 334 298 299 346 355 353 19 37 60 97 48 37 54 67 69 75 89 101 100 78 130 157 137 135 322 58 80 100 125 145 215 254 244 216 217 222 220 228 233 215 181 128 106 310 289 251 186 213 224 191 188 194 203 219 236 248 259 271 280 280 279
103 100 95 91 85 81 80 78 76 78 78 77 77 75 76 81 83 74 81 79 76 85 93 91 100 105 296 267 304 352 353 333 353 27 41 15 1 358 14 35 43 60 69 91 147 150 112 129 122 118 304 54 85 99 156 209 226 237 238 229 230 226 223 236 244 211 186 171 176 234 285 278 221 230 232 192 187 197 210 222 233 243 251 261 271 279 284
113 107 100 97 91 84 80 76 75 78 79 76 73 68 63 62 61 61 96 120 85 68 62 77 114 189 325 336 335 359 7 7 332 352 359 349 360 13 222 347 10 54 59 51 113 113 3 51 124 161 252 352 80 112 244 249 245 244 252 258 243 210 229 285 272 243 228 212 209 223 253 282 165 190 196 188 190 199 209 217 222 231 245 258 267 278 287
126 116 109 105 89 73 67 60 60 70 73 72 72 69 63 60 56 53 57 75 72 57 32 45 87 111 3 358 310 323 5 33 11 287 258 311 356 37 130 331 350 49 88 26 79 96 3 96 147 189 250 290 174 230 237 244 248 244 239 242 220 165 170 260 254 235 218 205 211 227 233 192 182 212 215 205 199 199 205 221 229 230 240 261 272 280 286
153 135 121 109 66 29 22 30 34 49 70 78 81 66 56 55 53 52 55 58 60 79 143 59 65 116 92 343 278 310 357 12 305 320 322 294 346 23 73 69 342 236 70 42 53 86 4 107 154 253 284 222 219 230 221 211 217 218 217 224 211 186 193 219 202 173 176 186 200 225 222 206 223 245 242 221 207 203 210 228 235 231 238 260 272 280 286
187 178 179 286 339 353 3 22 39 66 87 93 81 41 28 25 36 40 44 46 46 53 82 97 106 179 173 224 271 323 348 331 298 347 349 268 278 337 41 70 274 264 6 24 9 214 340 39 84 224 241 222 225 241 231 203 201 205 207 216 213 203 209 200 145 132 164 255 254 248 235 225 236 245 242 238 222 206 211 235 243 239 244 255 265 274 283
203 214 244 284 342 13 354 351 62 98 86 44 3 6 4 15 46 40 18 20 24 29 53 82 118 227 88 60 281 327 352 324 333 2 342 228 252 328 11 92 156 257 315 305 257 209 46 29 50 241 257 263 268 261 242 221 214 214 201 196 200 196 191 175 149 143 202 280 279 260 234 240 255 248 234 237 231 218 229 253 260 255 252 253 260 269 277
200 219 249 294 38 121 181 159 116 124 315 335 351 12 352 12 41 32 337 351 12 4 23 63 137 179 119 63 304 333 37 42 7 357 337 267 289 316 323 126 144 13 348 281 271 58 21 331 5 336 281 281 284 265 236 209 209 224 214 203 199 189 181 181 184 191 216 251 265 251 231 241 255 249 225 225 233 236 248 258 259 255 255 258 263 268 270
191 202 272 332 102 144 160 164 211 279 297 350 15 42 32 26 46 83 351 26 35 337 354 63 143 212 147 123 277 308 32 46 14 276 280 271 237 170 58 82 229 26 311 262 276 46 68 276 326 338 271 258 254 251 227 194 207 219 209 199 198 194 192 202 213 220 228 240 251 251 246 245 248 244 232 226 229 240 254 258 256 253 254 258 261 263 267
210 264 349 142 139 131 125 102 24 15 54 39 21 33 49 10 355 21 53 41 354 279 277 76 50 321 329 133 192 245 325 25 84 130 120 311 289 96 49 293 289 55 253 252 259 69 79 11 288 262 246 244 245 234 207 205 221 222 208 203 204 204 207 215 223 226 226 227 233 242 246 247 246 244 241 237 237 244 256 262 261 258 257 258 260 264 269
227 159 122 122 125 124 100 45 29 31 55 63 26 18 16 341 355 17 30 30 256 271 284 120 161 248 239 189 192 222 271 5 45 88 79 319 288 121 101 326 4 43 241 247 5 61 58 284 268 258 253 251 241 216 203 212 219 217 211 208 207 209 214 219 225 229 228 227 232 239 242 242 242 243 244 246 249 254 260 265 266 264 263 264 265 267 270
150 139 128 117 89 48 23 15 26 43 60 57 35 3 335 340 9 12 308 294 271 229 271 264 251 265 253 194 197 226 244 358 29 83 92 311 315 73 57 22 8 217 238 336 59 65 221 234 235 243 254 254 232 216 217 222 220 217 216 215 214 218 226 228 231 235 235 234 238 243 244 244 245 246 246 246 248 252 260 266 268 268 269 269 268 270 274
140 118 66 43 4 12 11 329 358 56 53 24 58 103 322 322 316 224 251 276 249 211 245 272 60 350 292 283 77 26 290 52 71 74 357 320 358 67 64 257 241 239 337 28 56 221 239 240 240 246 263 279 255 231 221 218 213 208 215 219 218 220 226 230 231 234 236 235 237 240 242 242 242 241 242 245 248 254 263 268 267 266 267 267 268 272 277
190 346 26 26 346 349 14 318 339 33 58 232 175 162 187 258 246 219 226 236 165 149 190 98 105 126 254 265 86 88 294 14 30 315 304 9 16 26 219 236 254 26 37 350 302 285 267 261 259 254 250 251 246 229 210 207 205 193 187 204 215 215 219 224 227 231 235 239 240 239 238 239 239 238 242 248 253 257 263 269 268 265 263 262 265 272 276
137 89 75 77 303 315 63 58 338 355 177 204 194 179 185 206 214 212 220 182 129 145 178 160 121 120 252 281 315 38 41 57 38 249 135 86 31 255 236 224 21 37 36 287 278 264 247 247 255 247 236 239 241 225 206 201 194 184 180 195 210 212 218 226 231 237 242 245 244 241 241 242 242 242 246 252 256 257 263 270 269 263 259 259 265 274 277
113 81 88 104 308 330 52 193 236 236 203 202 205 199 196 214 239 238 219 171 156 154 152 125 111 132 229 252 104 315 358 64 58 268 207 116 203 273 356 37 286 229 201 236 249 248 245 249 251 242 238 238 229 213 207 197 187 191 204 216 214 214 222 230 234 240 245 246 243 244 247 249 249 248 249 252 255 258 264 270 269 263 259 260 267 275 277
129 72 89 148 222 234 211 226 291 304 263 210 232 239 197 159 276 257 213 166 142 132 126 117 116 142 309 10 81 229 287 39 96 255 244 98 159 315 10 359 281 248 207 213 229 237 239 237 234 238 242 233 211 202 204 201 198 202 210 219 223 227 230 233 237 244 249 246 243 246 251 254 256 254 252 252 257 263 268 270 267 263 261 262 266 272 273
103 93 89 110 154 195 201 176 350 318 290 278 317 303 169 177 242 239 193 149 132 144 154 149 138 150 244 335 61 85 272 262 200 294 2 28 232 219 176 267 279 273 244 223 223 234 242 236 236 251 258 234 212 210 213 209 207 207 210 217 226 233 235 238 244 250 250 246 246 251 258 260 260 257 254 255 261 268 274 273 265 261 260 261 264 269 272
77 93 125 124 190 251 245 105 29 308 299 308 305 255 188 195 247 226 179 158 136 85 91 79 79 121 159 3 37 19 275 243 154 106 345 229 205 177 178 228 235 236 234 228 224 234 243 236 226 247 254 237 219 222 225 213 210 214 218 223 230 237 241 245 249 250 248 249 252 255 257 258 259 259 260 262 266 273 277 274 266 261 261 262 264 268 272
39 50 166 156 194 212 193 152 209 268 275 274 252 219 185 189 233 202 173 159 120 76 95 189 144 74 57 21 357 231 252 228 123 140 238 230 183 148 183 230 234 232 238 246 243 239 242 232 211 225 246 243 225 223 224 218 216 219 224 226 231 237 241 245 247 247 248 252 254 253 255 259 263 266 267 268 270 272 273 272 270 268 266 265 265 267 270
135 202 249 358 115 164 158 157 220 244 242 235 222 200 188 213 214 173 158 147 127 126 179 181 94 84 81 260 232 170 126 11 11 246 247 238 200 179 198 226 238 231 226 243 256 254 245 235 222 222 232 237 232 228 224 220 220 223 225 226 229 235 239 242 244 246 248 250 251 254 259 263 265 265 264 263 261 260 265 272 278 279 273 269 268 268 268
Height
833 832 830 828 826 824 822 820 818 815 813 811 810 810 811 814 817 815 812 810 809 810 823 842 849 849 856 861 861 862 861 858 858 860 861 859 858 856 857 860 859 860 862 860 859 859 857 856 859 860 864 868 872 881 887 884 880 872 863 865 867 864 865 860 849 849 854 855 860 864 863 861 860 868 880 881 876 873 868 864 865 863 858 862 862 856 871
834 832 830 828 826 824 823 821 818 816 814 812 811 812 816 820 820 818 815 810 807 815 827 836 843 853 857 856 858 862 863 861 859 860 861 862 861 857 857 862 859 860 865 860 858 860 854 855 863 866 865 870 876 882 883 879 874 869 867 868 866 860 862 861 853 850 851 851 852 853 855 861 868 876 886 889 887 884 880 877 872 864 867 874 867 859 874
834 832 830 828 827 825 823 821 819 817 815 814 813 814 818 821 821 821 820 814 814 828 840 838 840 850 851 850 857 860 861 866 866 863 864 867 867 859 858 862 862 863 864 861 862 864 858 858 867 870 867 869 875 878 878 877 873 872 875 876 870 864 865 864 857 857 860 855 854 857 862 870 877 881 887 889 889 884 875 867 861 861 876 885 873 867 881
834 833 831 829 827 825 823 822 820 818 817 816 814 816 819 820 822 825 825 824 828 841 852 846 841 847 848 850 860 861 857 864 869 865 863 866 866 863 862 866 864 861 862 859 860 865 868 866 868 873 871 868 872 876 875 874 874 873 877 879 873 868 871 873 864 861 865 863 865 876 879 877 876 881 885 888 892 891 878 866 867 877 884 881 878 883 887
835 833 832 830 828 826 824 822 820 819 818 817 815 819 822 822 829 836 832 830 836 842 851 852 848 850 851 853 861 864 860 861 862 861 862 864 866 865 867 871 867 864 865 862 859 866 871 869 871 878 880 874 873 875 875 873 873 872 874 878 873 863 866 879 877 871 877 881 882 887 886 883 886 889 890 891 891 886 879 877 883 891 886 875 881 893 890
836 834 832 831 829 827 825 823 821 820 818 817 817 821 826 827 836 845 840 837 844 845 849 856 855 853 855 860 865 864 862 862 861 861 862 864 865 862 864 873 875 876 875 866 863 868 867 869 877 881 881 879 873 869 870 871 872 872 871 874 874 864 866 884 885 878 886 891 889 888 888 891 897 897 895 897 895 887 886 890 893 896 891 882 885 893 893
837 835 833 832 830 828 826 824 823 821 820 819 817 821 830 833 837 846 845 845 855 858 859 860 856 854 857 861 866 866 863 864 868 870 864 861 865 864 865 875 878 878 877 868 867 872 867 868 880 882 882 884 879 871 869 870 874 873 870 876 880 870 870 886 888 879 884 891 890 890 891 892 898 902 900 900 899 895 895 895 896 898 896 892 893 896 898
838 837 834 833 831 829 828 825 824 822 821 821 820 824 830 831 833 841 844 850 860 863 863 858 852 856 861 860 866 871 867 865 871 876 870 863 866 870 871 877 880 878 877 872 873 880 878 874 880 885 883 883 885 882 878 877 876 873 874 879 879 868 870 889 891 874 876 891 893 891 892 890 893 900 904 903 900 899 899 898 899 900 896 897 901 900 900
839 838 836 835 833 831 829 827 825 824 822 821 824 828 831 831 833 836 837 850 863 862 862 862 853 856 865 864 866 870 869 870 873 876 878 875 873 875 876 876 879 881 880 879 880 885 886 882 883 887 885 883 886 885 885 887 879 875 881 884 879 874 873 887 886 863 864 888 890 888 895 894 891 897 904 906 903 901 902 901 900 902 902 902 902 899 902
841 839 837 836 834 832 831 829 827 826 824 823 825 829 832 832 834 834 834 849 867 867 864 863 856 860 872 874 871 870 872 878 876 870 876 881 878 880 882 878 877 879 880 883 885 885 886 886 886 888 888 889 890 888 889 892 884 880 885 889 896 895 879 881 887 867 860 881 891 893 892 878 878 897 908 909 907 905 905 903 901 904 906 903 900 901 906
842 841 839 838 836 834 833 831 829 828 826 826 827 829 832 831 832 835 835 845 868 875 867 862 861 867 877 880 877 875 874 877 877 869 870 878 881 883 884 879 876 880 883 885 887 887 888 888 889 890 889 888 891 892 891 892 891 889 886 884 896 901 884 886 899 879 860 874 889 888 873 859 875 904 912 908 908 907 907 905 903 906 907 906 906 908 909
844 842 841 839 837 836 835 833 831 830 828 828 828 828 831 832 831 834 835 843 865 875 868 870 877 879 883 885 880 877 876 877 880 878 874 877 881 882 883 879 875 880 886 887 887 887 887 887 888 889 890 889 891 892 889 889 892 894 892 883 882 885 883 892 904 891 875 882 881 861 850 867 897 911 909 908 908 907 907 906 909 913 911 910 912 911 909
845 844 842 841 839 838 837 835 833 832 830 830 830 829 831 832 831 836 840 847 867 879 873 878 889 888 886 887 880 877 882 883 883 883 880 879 881 883 885 883 880 883 887 886 887 887 885 887 888 885 886 888 887 885 887 891 892 892 893 891 883 879 881 890 898 892 883 887 883 864 867 894 911 908 907 909 907 906 906 904 909 915 913 912 914 912 910
847 846 844 842 841 839 838 837 835 834 833 832 831 830 831 832 832 837 839 846 871 892 886 875 881 887 888 887 882 879 881 883 881 881 881 882 883 884 886 887 885 886 887 886 886 886 884 885 885 881 881 881 878 877 883 893 897 894 892 894 892 887 883 884 889 892 892 893 891 884 884 895 903 906 911 912 909 911 911 906 908 913 913 912 913 911 911
848 847 846 844 843 842 840 839 837 836 835 834 833 832 832 833 833 835 838 846 865 885 888 879 882 891 891 888 885 878 875 878 879 880 883 886 885 884 886 888 886 886 887 886 886 887 885 883 881 878 878 881 880 879 880 885 893 898 899 899 898 894 891 884 883 897 907 898 889 883 875 875 893 909 913 911 910 912 914 912 909 911 912 911 910 911 911
850 849 848 846 845 843 842 841 839 838 837 836 835 834 834 835 835 835 839 845 852 867 885 893 896 898 893 889 889 884 878 880 881 879 880 882 883 885 886 887 886 886 887 888 890 889 884 883 887 887 885 890 890 884 881 884 888 892 895 897 896 897 902 898 890 902 914 902 889 887 879 878 898 911 910 909 910 910 914 909 901 906 912 909 908 912 910
852 851 850 848 847 845 844 842 841 840 839 838 837 836 836 838 839 837 840 847 858 877 894 897 896 896 891 885 887 889 888 888 886 880 876 878 884 887 886 886 888 887 886 887 889 887 884 888 894 889 889 899 898 886 886 893 892 888 890 896 897 897 902 902 896 907 922 913 898 893 887 890 905 911 907 908 909 911 910 894 887 904 913 907 907 911 909
854 853 851 850 849 847 846 844 843 842 841 841 839 838 839 840 840 840 842 849 865 885 898 897 894 895 891 886 888 892 892 891 889 884 881 884 888 887 885 887 887 884 886 887 884 883 885 891 897 890 888 899 899 889 890 896 897 899 902 905 906 906 911 916 912 913 922 919 905 894 889 897 909 909 907 909 909 907 901 890 892 907 909 905 908 910 908
855 854 853 852 850 849 848 846 845 844 843 842 841 841 842 844 843 842 845 853 866 881 894 897 895 894 894 893 894 894 893 893 891 885 879 879 885 890 890 890 887 885 887 886 886 891 890 893 905 906 894 894 899 897 897 899 901 908 912 910 909 910 915 921 918 915 922 927 916 898 890 900 911 909 905 907 906 900 896 897 903 906 904 905 908 908 908
857 855 855 854 852 851 850 848 847 846 845 844 843 843 845 847 846 844 846 856 871 886 896 897 895 895 895 894 893 892 893 892 891 887 880 879 888 890 881 878 882 886 884 879 884 897 894 889 904 910 896 897 905 902 900 905 908 913 914 912 914 914 909 909 913 917 923 925 913 894 886 899 911 908 903 904 903 900 901 904 905 904 904 906 907 907 908
858 857 856 855 854 853 851 850 850 848 848 848 845 844 847 850 850 849 848 850 862 879 892 895 895 895 895 894 895 894 893 891 891 891 888 888 893 887 874 875 885 888 887 882 883 894 896 895 903 905 899 904 908 902 902 904 904 913 921 916 915 918 911 906 913 920 916 906 896 890 891 901 908 906 903 903 903 903 906 906 905 904 905 906 906 907 907
859 859 858 856 856 856 854 853 853 851 852 852 848 846 851 854 855 854 853 852 860 878 891 894 895 895 894 895 895 894 894 894 893 894 892 890 892 890 884 888 892 891 894 893 887 889 895 898 900 899 898 903 905 909 917 907 893 906 921 913 906 911 911 909 912 915 912 901 892 893 898 903 905 904 903 903 903 905 906 906 905 905 904 906 907 906 906
861 860 860 858 858 858 856 856 856 854 855 855 852 850 853 858 859 857 854 858 870 885 893 894 894 895 895 896 896 894 895 895 893 894 894 890 890 891 891 893 893 893 897 895 888 888 892 894 899 898 897 903 904 907 916 911 900 906 913 908 907 914 917 916 915 913 910 902 896 897 899 900 902 903 902 903 904 904 905 905 905 905 904 905 906 905 905
862 861 861 860 860 860 859 858 858 857 858 858 856 855 856 858 860 859 858 863 873 882 890 894 896 896 895 896 896 895 895 895 893 894 895 891 889 888 890 894 893 893 896 895 895 897 895 898 906 901 895 905 909 899 898 901 903 908 907 904 910 917 917 917 915 913 908 898 893 898 899 897 900 902 901 903 904 903 905 905 904 905 905 905 905 905 905
863 863 863 862 862 862 861 861 860 860 860 860 859 859 859 859 861 860 860 864 869 875 884 893 897 897 897 897 896 896 895 895 895 894 893 894 893 889 890 894 894 893 895 895 897 898 894 896 904 899 893 904 910 904 901 900 902 908 907 900 903 911 915 914 913 913 909 897 892 897 898 896 899 901 900 903 903 902 904 904 903 904 904 904 904 904 903
865 865 865 864 864 864 863 864 863 862 862 862 862 862 861 861 863 862 861 864 869 875 886 895 898 897 897 896 896 896 896 895 895 895 893 893 894 892 893 896 895 894 897 896 897 898 897 898 902 898 897 905 909 908 908 905 905 910 907 901 904 911 911 910 910 910 906 897 893 897 896 895 899 901 900 902 902 902 903 903 903 904 903 903 903 903 902
867 867 867 866 866 866 865 866 865 865 865 865 864 864 863 863 864 864 864 864 866 871 882 893 898 897 897 897 896 896 897 895 895 895 895 893 894 894 894 895 895 895 896 896 897 899 899 898 899 901 904 910 913 914 915 913 913 914 908 905 910 909 904 906 910 906 899 893 892 895 896 894 895 897 899 900 900 901 902 902 902 903 902 902 902 901 901
869 869 869 869 868 868 868 868 867 867 867 867 866 866 865 865 865 865 865 865 863 867 880 892 897 897 896 896 897 896 896 896 895 895 895 894 894 894 894 895 896 896 895 894 894 896 896 894 898 908 913 911 909 913 917 918 915 908 901 901 904 899 894 898 901 896 891 889 890 895 897 894 892 895 897 899 899 900 901 901 901 901 901 901 901 900 900
871 871 871 871 871 870 869 869 869 869 868 868 868 868 867 868 869 868 868 867 865 871 883 891 894 896 896 896 897 897 896 896 896 895 895 895 894 894 895 895 895 895 897 897 894 896 899 901 905 909 910 906 904 906 911 914 907 893 887 892 896 893 891 891 891 890 889 888 889 893 894 892 893 895 896 897 898 898 899 899 899 899 900 900 899 899 899
872 873 872 872 871 870 869 869 868 869 869 868 869 869 868 871 872 871 871 872 870 872 880 886 890 895 898 897 897 897 896 896 895 895 895 895 895 895 895 895 895 896 897 896 895 897 902 907 909 908 906 907 907 905 908 914 906 889 883 889 892 890 890 889 888 888 888 888 890 893 893 892 893 894 895 896 897 897 898 898 898 898 898 898 898 898 897
874 874 874 873 872 871 870 869 868 868 869 868 869 869 870 872 874 873 873 873 872 873 879 886 892 897 898 897 897 896 896 895 895 895 895 895 895 895 894 894 895 895 894 895 899 902 903 903 905 906 907 908 907 905 909 912 901 885 881 886 888 888 889 888 887 888 888 889 891 892 891 893 893 893 894 895 895 896 896 896 897 897 897 897 897 896 896
875 875 875 875 874 873 872 872 871 870 869 869 869 871 872 874 875 875 874 874 874 874 877 883 891 896 897 896 897 897 896 895 894 894 894 894 894 894 894 894 894 894 895 897 900 902 904 905 905 906 908 908 908 909 911 906 892 880 878 881 883 886 887 886 887 888 888 889 891 890 889 890 892 892 892 893 894 895 895 895 895 896 895 895 895 894 894
876 877 877 876 876 876 875 875 874 873 872 872 873 874 875 875 875 875 875 874 875 876 878 882 890 896 897 896 896 897 895 895 895 895 894 894 895 894 893 894 895 894 895 896 898 901 904 906 905 905 908 909 910 909 906 896 884 877 878 881 884 886 886 886 887 888 888 889 890 889 887 888 890 891 891 892 893 893 894 894 894 894 894 894 894 893 892
878 879 878 877 878 878 877 877 877 875 874 875 875 876 877 876 876 876 875 875 876 878 881 886 890 892 894 895 896 896 895 895 896 896 894 893 894 894 893 894 895 895 894 896 899 902 904 906 905 903 906 911 913 906 894 881 876 877 880 883 885 886 887 887 886 886 887 888 888 888 888 888 890 890 890 891 892 892 892 893 893 893 893 893 892 891 891
879 879 879 879 879 878 878 879 877 877 877 877 877 879 879 877 878 877 875 876 876 877 883 892 893 890 889 890 890 893 896 897 897 899 897 895 894 896 895 894 893 893 894 897 900 901 902 905 903 901 904 909 905 893 880 871 871 875 878 880 883 885 885 884 883 884 886 887 886 887 888 888 889 889 889 890 890 891 891 892 891 891 892 891 890 890 889
880 880 880 880 880 879 879 879 878 878 879 878 879 880 879 878 880 879 877 878 877 876 885 897 899 897 895 892 891 895 897 896 898 901 900 896 895 896 896 893 891 895 899 901 901 901 904 905 902 900 904 901 886 873 870 869 868 872 874 875 879 882 880 879 881 883 885 886 886 887 888 888 888 888 888 888 889 889 889 890 890 890 890 889 888 888 887
880 880 880 880 880 880 880 879 879 880 879 879 881 881 879 879 880 878 878 880 879 881 888 892 896 905 908 903 900 901 898 896 899 900 898 896 897 898 898 895 893 896 899 897 898 902 904 905 902 897 893 885 872 868 873 873 869 871 874 874 876 879 879 879 882 883 883 885 885 885 886 887 886 886 886 886 887 888 888 888 888 887 887 887 886 886 886
880 881 881 880 880 881 880 880 880 880 880 880 881 879 879 881 880 879 883 885 884 888 894 894 898 910 915 907 902 900 898 900 903 899 897 899 898 896 898 897 895 897 896 894 900 906 903 906 912 906 889 877 873 872 874 874 872 873 874 874 875 877 878 879 881 882 882 882 881 881 883 884 884 884 885 884 884 885 885 885 885 885 885 884 884 884 884
880 881 881 880 880 881 880 880 881 881 880 881 880 879 882 883 879 880 889 892 890 893 898 898 903 912 912 904 901 902 901 903 902 897 897 900 895 892 896 896 896 899 894 889 899 904 895 896 913 911 886 871 870 869 867 871 873 872 873 874 875 875 876 877 879 879 879 879 878 879 880 881 881 881 882 882 883 883 883 883 883 883 883 882 883 882 882
880 881 881 881 881 880 880 880 881 880 880 881 880 880 882 883 884 888 892 890 890 896 902 903 907 914 913 906 904 905 903 902 901 900 900 900 897 898 899 896 897 899 890 885 898 906 893 890 904 899 873 858 862 866 867 871 871 870 872 874 873 873 875 876 876 876 877 877 878 878 878 879 879 879 880 880 881 881 881 881 881 881 881 881 880 880 880
881 881 880 880 880 880 880 881 881 880 882 882 881 882 884 887 895 902 898 887 886 898 908 908 907 908 910 910 908 906 904 906 907 907 905 902 902 901 897 896 901 899 887 886 902 907 896 891 894 884 864 856 861 866 868 869 869 870 871 872 872 873 874 874 874 876 876 876 876 877 877 877 877 877 877 878 879 879 879 879 878 878 879 878 878 878 878
880 880 880 881 881 880 881 881 880 881 882 880 879 887 894 895 895 898 894 890 893 902 907 907 905 904 906 909 908 905 906 908 909 908 904 901 902 901 900 902 903 892 884 895 907 905 895 890 882 867 857 858 863 866 867 867 867 869 870 870 871 872 872 872 873 873 874 874 875 875 875 875 875 876 876 876 876 876 877 876 876 876 876 876 876 876 875
880 881 881 881 881 881 881 881 882 884 885 883 880 884 890 893 896 898 897 899 906 907 903 904 906 905 904 907 907 907 907 907 908 909 906 903 903 904 903 902 898 892 894 905 906 894 885 879 866 853 853 859 862 865 866 865 866 868 869 869 870 870 870 871 872 871 872 873 873 872 873 874 874 874 874 874 874 874 874 874 874 874 874 874 874 873 873
881 882 881 881 883 882 879 880 882 883 883 886 887 885 882 886 894 898 894 893 899 902 903 906 907 902 901 907 908 907 907 908 907 906 906 906 906 904 896 891 893 897 900 899 894 890 887 877 862 855 859 862 861 862 865 864 865 867 867 867 869 869 869 870 870 870 870 871 870 871 872 871 871 872 872 872 872 872 872 872 872 872 872 872 871 871 871
880 882 881 880 882 881 878 880 884 884 882 886 890 889 885 884 886 888 891 895 900 902 904 909 909 904 904 908 908 906 909 910 905 903 906 906 902 898 894 893 898 902 899 893 889 885 877 865 856 855 857 856 855 858 861 862 863 865 865 866 867 867 867 868 868 868 868 868 868 869 869 868 869 870 870 869 870 870 869 869 870 869 869 869 869 868 869
880 884 883 879 880 885 885 882 882 882 883 887 889 887 885 884 886 891 899 904 905 902 903 908 909 906 905 907 907 907 911 909 903 905 912 906 894 892 899 901 897 893 890 886 879 867 852 845 848 852 852 851 853 857 859 861 862 863 863 864 864 864 865 866 865 865 866 866 866 866 866 866 867 867 867 867 868 868 867 867 867 867 867 867 866 866 866
881 887 885 879 881 888 888 884 883 886 888 891 892 892 895 897 898 901 905 906 905 905 907 911 910 907 907 909 907 906 911 911 905 906 911 904 893 896 904 901 891 886 881 872 860 850 845 846 849 850 849 851 854 856 858 860 861 861 861 861 862 863 863 863 863 863 863 864 864 864 864 864 864 864 865 865 865 865 865 865 865 864 864 864 863 863 863
881 885 882 879 880 881 881 885 891 893 895 899 902 905 908 906 900 899 903 907 907 906 905 907 906 904 906 910 907 904 908 909 902 902 908 906 895 891 891 886 883 885 881 867 852 844 843 846 848 848 850 853 853 854 856 858 858 859 860 859 859 861 861 860 861 861 861 861 862 861 861 862 862 862 862 862 862 862 863 862 862 862 862 861 861 861 861
881 881 881 884 886 886 891 898 895 888 891 902 908 907 906 902 897 897 903 907 907 906 906 908 905 900 903 908 908 905 905 904 899 900 907 904 892 886 885 878 870 866 865 861 854 847 843 846 850 850 851 853 853 853 854 855 855 856 857 856 857 858 858 858 859 859 858 859 860 859 859 860 860 859 860 860 859 859 860 859 859 859 859 858 859 858 858
881 880 882 885 884 886 895 900 890 879 883 893 897 898 900 898 895 898 903 906 906 907 907 906 904 902 906 908 902 896 898 904 904 900 895 889 887 890 888 876 860 850 847 850 851 848 844 848 851 849 848 851 853 852 852 852 852 853 853 853 854 855 856 855 856 857 856 857 857 857 857 858 858 857 858 858 857 857 857 856 856 856 856 856 856 855 854
881 880 883 885 883 882 886 886 879 875 878 881 883 890 895 894 891 895 901 904 905 902 900 900 903 904 901 896 889 886 893 904 906 899 889 887 892 892 878 859 849 846 843 843 847 848 847 849 851 848 847 849 850 849 849 850 849 850 851 852 852 853 854 853 854 854 854 854 855 855 855 855 855 855 856 855 855 855 854 853 852 853 853 853 853 852 852
878 877 883 890 893 891 888 885 882 882 883 885 887 893 894 892 892 897 901 901 899 896 896 901 904 898 888 886 890 894 896 897 894 888 882 881 884 879 861 845 841 843 842 842 845 847 847 848 849 847 846 846 846 846 846 847 847 848 849 850 850 851 851 851 852 852 852 852 853 852 853 853 853 853 854 853 853 853 851 850 849 850 850 849 850 850 849